Home   Weather   Barrow   Past weeks

Flag for USA Past Weather in Barrow, Alaska, USA — Yesterday and Last 2 Weeks

Now
50 °F

Light rain. Fog.


Feels Like: 46 °F
Forecast: 43 / 53 °F
Wind: 12 mph from Southwest

Location: Post Rogers Memorial Airport

Current Time: Jul 23, 2017 at 6:50:24 pm

Latest Report: Jul 23, 2017 at 6:16 pm


Visibility: 2 mi

Pressure: 29.34 "Hg

Humidity: 96%

Dew Point: 49 °F

Location of BarrowLocation

Past Weather in Barrow — Graph

°F

Barrow Temperature Yesterday

Maximum temperature yesterday: 51 °F (at 12:02 am)
Minimum temperature yesterday: 37 °F (at 8:53 pm)
Average temperature yesterday: 40 °F

High & Low Weather Summary for the Past Weeks

 TemperatureHumidityPressure
High65 °F (Jul 18, 1:53 pm)100% (Jul 8, 10:53 pm)30.33 "Hg (Jul 8, 10:53 pm)
Low35 °F (Jul 20, 9:53 pm)60% (Jul 14, 2:53 pm)29.34 "Hg (Jul 23, 5:30 pm)
Average45 °F89%29.89 "Hg
* Reported Jul 8 5:53 pm — Jul 23 5:30 pm, Barrow. Weather by CustomWeather, © 2017

Note: Actual official high and low records may vary slightly from our data, if they occured in-between our weather recording intervals... More about our weather records

Advertising

Barrow Weather History for the Previous 24 Hours

Scroll right to see more
 ConditionsComfort  
Time TempWeatherWind HumidityBarometerVisibility
5:30 pm
Sun, Jul 23
53 °FLight rain. Cloudy.12 mph93%29.34 "Hg10 mi
3:53 pm52 °FRain. Fog.9 mph97%29.36 "Hg4 mi
3:39 pm51 °FRain. Fog.8 mph100%29.36 "Hg3 mi
3:27 pm51 °FRain. Fog.8 mph100%29.36 "Hg3 mi
3:06 pm52 °FLight rain. Fog.9 mph97%29.37 "Hg3 mi
2:53 pm52 °FLight rain. Fog.10 mph97%29.37 "Hg2 mi
2:14 pm52 °FLight rain. Low clouds.10 mph97%29.38 "Hg10 mi
2:02 pm52 °FLight rain. Mostly cloudy.10 mph97%29.39 "Hg10 mi
1:40 pm52 °FLight rain. Fog.12 mph97%29.39 "Hg2 mi
1:28 pm52 °FLight rain. Fog.12 mph97%29.39 "Hg4 mi
12:53 pm51 °FLow clouds.9 mph100%29.39 "Hg7 mi
11:53 am49 °FLight rain. Fog.9 mph100%29.41 "Hg4 mi
10:53 am47 °FLight rain. Mostly cloudy.12 mph97%29.44 "Hg10 mi
9:53 am44 °FLight rain. Fog.14 mph96%29.47 "Hg5 mi
9:43 am44 °FLight rain. Fog.15 mph93%29.47 "Hg5 mi
9:15 am43 °FRain. Fog.15 mph97%29.49 "Hg4 mi
8:53 am42 °FLight rain. Fog.16 mph96%29.50 "Hg5 mi
8:30 am42 °FLight rain. Fog.16 mph96%29.51 "Hg5 mi
7:53 am41 °FLight rain. More clouds than sun.16 mph96%29.52 "Hg8 mi
7:30 am40 °FLight rain. Overcast.16 mph97%29.53 "Hg7 mi
6:53 am40 °FMostly cloudy.16 mph97%29.55 "Hg10 mi
6:34 am40 °FLow clouds.14 mph97%29.56 "Hg10 mi
5:53 am39 °FLight rain. Fog.16 mph96%29.58 "Hg4 mi
4:53 am38 °FLight rain. Fog.13 mph97%29.62 "Hg4 mi
4:28 am38 °FLight rain. Fog.12 mph97%29.64 "Hg5 mi
3:53 am38 °FLight rain. Fog.12 mph97%29.65 "Hg5 mi
3:33 am38 °FLight rain. Fog.12 mph97%29.64 "Hg3 mi
3:04 am38 °FLight rain. More clouds than sun.13 mph97%29.66 "Hg10 mi
2:53 am38 °FMostly cloudy.12 mph97%29.66 "Hg10 mi
1:53 am37 °FLow clouds.13 mph96%29.68 "Hg9 mi
12:57 am37 °FFog.9 mph96%29.69 "Hg3 mi
12:32 am37 °FFog.8 mph93%29.70 "Hg2 mi
12:04 am37 °FFog.5 mph96%29.71 "Hg3 mi
11:23 pm
Sat, Jul 22
37 °FFog.No wind96%29.73 "Hg2 mi
10:38 pm37 °FFog.No wind96%29.74 "Hg1 mi
9:53 pm37 °FFog.7 mph96%29.75 "Hg1 mi
9:40 pm37 °FFog.7 mph96%29.75 "Hg2 mi
8:53 pm37 °FFog.8 mph96%29.75 "Hg4 mi
7:53 pm38 °FFog.15 mph93%29.75 "Hg6 mi
6:53 pm39 °FLow clouds.16 mph89%29.75 "Hg9 mi
Weather by CustomWeather, © 2017

See weather overviewHow to use our weather pages